Weather History for Nuiqsut, AK

Change the Weather History Date:

Wednesday, February 13, 2013

  Actual Average (PAKU) Record (PAKU)
Temperature  
Mean Temperature -20 °F -  
Max Temperature -15 °F -13 °F 33 °F (1989)
Min Temperature -26 °F -20 °F -47 °F (1987)
Degree Days  
Heating Degree Days 86    
Moisture  
Dew Point -26 °F    
Average Humidity 81    
Maximum Humidity 86    
Minimum Humidity 77    
Precipitation  
Precipitation 0.00 in - - ()
Sea Level Pressure  
Sea Level Pressure 30.02 in    
Wind  
Wind Speed 8 mph (NE)    
Max Wind Speed 14 mph    
Max Gust Speed -    
Visibility 10 miles    
Events      
Averages and records for this station are not official NWS values.
T = Trace of Precipitation, MM = Missing Value Source: NWS Daily Summary

Daily Weather History Graph

Daily Weather History Graph

Search for Another Location

Airport:

Trip Planner

Search our weather history database for the weather conditions in past years. The results will help you decide how hot, cold, wet, or windy it might be!

Date:

Astronomy

Feb. 13, 2013 Rise Set
Actual Time 9:46 AM AKST 4:51 PM AKST
Civil Twilight 8:35 AM AKST 6:02 PM AKST
Nautical Twilight 7:22 AM AKST 7:15 PM AKST
Astronomical Twilight 6:11 AM AKST 8:27 PM AKST
Moon 8:40 AM AKST (2/13) No Moon Set
Length of Visible Light 9h 26m
Length of Day
7h 04m
Waxing Crescent, 15% of the Moon is Illuminated
Feb 13
Waxing Crescent
Feb 17
First Quarter
Feb 25
Full
Mar 4
Last Quarter
Mar 11
New

Hourly Weather History & Observations

Time (AKST) Temp. Windchill Dew Point Humidity Pressure Visibility Wind Dir Wind Speed Gust Speed Precip Events Conditions
12:53 AM -15.0 °F -31.0 °F -18.9 °F 82% 29.97 in 10.0 mi ENE 6.9 mph - N/A   Overcast
1:53 AM -16.1 °F -30.6 °F -20.0 °F 82% 29.99 in 10.0 mi ENE 5.8 mph - N/A   Overcast
3:53 AM -17.0 °F -34.8 °F -20.9 °F 82% 29.99 in 10.0 mi ENE 8.1 mph - N/A   Clear
4:53 AM -20.0 °F -39.9 °F -24.0 °F 82% 29.99 in 10.0 mi ENE 9.2 mph - N/A   Clear
5:53 AM -20.9 °F -39.7 °F -24.0 °F 86% 29.99 in 10.0 mi ENE 8.1 mph - N/A   Clear
6:53 AM -22.0 °F -41.0 °F -26.0 °F 82% 29.99 in 10.0 mi ENE 8.1 mph - N/A   Clear
7:53 AM -23.1 °F -38.9 °F -27.0 °F 82% 29.99 in 10.0 mi NE 5.8 mph - N/A   Clear
8:53 AM -25.1 °F -43.1 °F -29.0 °F 82% 30.00 in 10.0 mi NE 6.9 mph - N/A   Clear
9:53 AM -26.0 °F -44.2 °F -31.0 °F 77% 30.01 in 10.0 mi ENE 6.9 mph - N/A   Clear
10:53 AM -25.1 °F -41.3 °F -29.9 °F 78% 30.01 in 8.0 mi NE 5.8 mph - N/A   Clear
11:53 AM -25.1 °F -43.1 °F -29.9 °F 78% 30.02 in 10.0 mi NE 6.9 mph - N/A   Clear
12:53 PM -25.1 °F -43.1 °F -29.0 °F 82% 30.03 in 10.0 mi NE 6.9 mph - N/A   Scattered Clouds
1:53 PM -22.0 °F -42.3 °F -27.0 °F 77% 30.04 in 10.0 mi NE 9.2 mph - N/A   Overcast
2:53 PM -20.0 °F -38.6 °F -24.0 °F 82% 30.04 in 10.0 mi NE 8.1 mph - N/A   Overcast
3:53 PM -18.9 °F -38.6 °F -23.1 °F 81% 30.04 in 10.0 mi ENE 9.2 mph - N/A   Overcast
4:53 PM -18.0 °F -39.7 °F -23.1 °F 78% 30.04 in 10.0 mi ENE 11.5 mph - N/A   Overcast
5:53 PM -20.0 °F -39.9 °F -24.0 °F 82% 30.04 in 10.0 mi NE 9.2 mph - N/A   Clear
6:53 PM -22.0 °F -42.3 °F -27.0 °F 77% 30.04 in 10.0 mi ENE 9.2 mph - N/A   Clear
7:53 PM -23.1 °F -40.7 °F -27.0 °F 82% 30.05 in 10.0 mi NE 6.9 mph - N/A   Clear
8:53 PM -24.0 °F -41.8 °F -27.9 °F 82% 30.06 in 10.0 mi NNE 6.9 mph - N/A   Clear
9:53 PM -24.0 °F -43.4 °F -27.9 °F 82% 30.06 in 10.0 mi NE 8.1 mph - N/A   Clear
10:53 PM -23.1 °F -48.0 °F -27.9 °F 78% 30.05 in 10.0 mi NE 13.8 mph - N/A   Clear
11:53 PM -24.0 °F -48.2 °F -27.9 °F 82% 30.05 in 10.0 mi NE 12.7 mph - N/A   Clear